Weather History for KM63 - March, 2014

Change the Weather History Date:

Monday, March 17, 2014

  Actual Average Record
Temperature  
Mean Temperature 58 °F -  
Max Temperature 73 °F - - ()
Min Temperature 44 °F - - ()
Degree Days  
Heating Degree Days 6    
Growing Degree Days 8 (Base 50)    
Moisture  
Dew Point 10 °F    
Average Humidity 15    
Maximum Humidity 26    
Minimum Humidity 8    
Precipitation  
Precipitation 0.00 in - - ()
Sea Level Pressure  
Sea Level Pressure 29.78 in    
Wind  
Wind Speed 10 mph (SSW)    
Max Wind Speed 23 mph    
Max Gust Speed 32 mph    
Visibility 12 miles    
Events      
T = Trace of Precipitation, MM = Missing Value Source: NWS Daily Summary

Daily Weather History Graph

Daily Weather History Graph

Search for Another Location

Airport or City:

Trip Planner

Search our weather history database for the weather conditions in past years. The results will help you decide how hot, cold, wet, or windy it might be!

Date:

Astronomy

Mar. 17, 2014 Rise Set
Actual Time 7:12 AM MDT 7:14 PM MDT
Civil Twilight 6:47 AM MDT 7:38 PM MDT
Nautical Twilight 6:19 AM MDT 8:06 PM MDT
Astronomical Twilight 5:50 AM MDT 8:35 PM MDT
Moon 8:27 PM MDT (3/17) 7:33 AM MDT (3/17)
Length of Visible Light 12h 50m
Length of Day
12h 01m
Full, 99% of the Moon is Illuminated
Mar 17
Full
Mar 23
Last Quarter
Mar 30
New
Apr 7
First Quarter
Apr 15
Full

Hourly Weather History & Observations

Time (MDT) Temp. Windchill Dew Point Humidity Pressure Visibility Wind Dir Wind Speed Gust Speed Precip Events Conditions
12:56 AM 47.5 °F - 9.7 °F 22% 30.06 in 12.0 mi SE 1.2 mph - N/A   Clear
1:56 AM 49.1 °F - 9.9 °F 21% 30.01 in 12.0 mi SSE 10.4 mph - N/A   Clear
2:56 AM 46.8 °F - 10.6 °F 23% 29.99 in 12.0 mi SSE 11.5 mph - N/A   Clear
3:56 AM 45.1 °F 42.0 °F 11.1 °F 25% 29.99 in 12.0 mi SE 5.8 mph - N/A   Clear
4:56 AM 44.8 °F 40.4 °F 11.3 °F 26% 29.96 in 12.0 mi SE 8.1 mph - N/A   Clear
5:56 AM 44.4 °F 40.0 °F 11.1 °F 26% 29.95 in 12.0 mi SE 8.1 mph - N/A   Clear
6:56 AM 45.1 °F 40.3 °F 10.8 °F 25% 29.93 in 12.0 mi SE 9.2 mph - N/A   Clear
7:56 AM 44.1 °F 39.5 °F 11.1 °F 26% 29.94 in 12.0 mi SSE 8.1 mph - N/A   Clear
8:56 AM 48.2 °F - 11.5 °F 23% 29.93 in 12.0 mi SSE 6.9 mph 13.8 mph N/A   Clear
9:56 AM 52.7 °F - 11.1 °F 19% 29.92 in 12.0 mi South 6.9 mph - N/A   Clear
10:56 AM 55.8 °F - 10.0 °F 16% 29.91 in 12.0 mi Variable 5.8 mph - N/A   Clear
11:56 AM 60.4 °F - 10.6 °F 14% 29.86 in 12.0 mi SW 6.9 mph 15.0 mph N/A   Clear
12:56 PM 65.3 °F - 10.6 °F 12% 29.78 in 12.0 mi SW 11.5 mph 19.6 mph N/A   Partly Cloudy
1:56 PM 67.3 °F - 10.9 °F 11% 29.73 in 12.0 mi SSW 15.0 mph 23.0 mph N/A   Clear
2:29 PM 69.8 °F - 12.2 °F 11% 29.83 in 12.0 mi WSW 16.1 mph 21.9 mph N/A   Clear
2:33 PM 69.8 °F - 12.2 °F 11% 29.82 in 12.0 mi SW 15.0 mph 24.2 mph N/A   Partly Cloudy
2:47 PM 69.8 °F - 10.4 °F 10% 29.80 in 12.0 mi WSW 19.6 mph 27.6 mph N/A   Partly Cloudy
2:56 PM 69.3 °F - 10.8 °F 10% 29.67 in 12.0 mi SW 23.0 mph 29.9 mph N/A   Partly Cloudy
3:13 PM 69.8 °F - 10.4 °F 10% 29.79 in 12.0 mi WSW 16.1 mph 25.3 mph N/A   Partly Cloudy
3:56 PM 71.4 °F - 10.2 °F 9% 29.63 in 12.0 mi SW 18.4 mph 31.1 mph N/A   Clear
4:14 PM 71.6 °F - 10.4 °F 9% 29.76 in 12.0 mi SW 23.0 mph 28.8 mph N/A   Clear
4:56 PM 72.5 °F - 10.2 °F 9% 29.60 in 12.0 mi SW 17.3 mph 32.2 mph N/A   Clear
5:14 PM 73.4 °F - 8.6 °F 8% 29.72 in 12.0 mi West 19.6 mph 25.3 mph N/A   Clear
5:20 PM 73.4 °F - 10.4 °F 9% 29.73 in 12.0 mi SSW 16.1 mph 25.3 mph N/A   Clear
5:56 PM 72.7 °F - 9.1 °F 9% 29.56 in 12.0 mi WSW 21.9 mph 28.8 mph N/A   Clear
6:56 PM 70.9 °F - 8.6 °F 9% 29.56 in 12.0 mi WSW 13.8 mph 21.9 mph N/A   Clear
7:56 PM 67.8 °F - 7.7 °F 10% 29.56 in 12.0 mi South 10.4 mph - N/A   Partly Cloudy
8:56 PM 65.8 °F - 7.3 °F 10% 29.55 in 12.0 mi NNE 1.2 mph - N/A   Clear
9:56 PM 66.2 °F - 8.4 °F 10% 29.52 in 12.0 mi WSW 20.7 mph 24.2 mph N/A   Partly Cloudy
10:56 PM 61.9 °F - 8.2 °F 12% 29.53 in 12.0 mi SW 12.7 mph - N/A   Partly Cloudy
11:56 PM 61.2 °F - 8.6 °F 13% 29.54 in 12.0 mi WSW 10.4 mph - N/A   Clear